Flag for Poland Weather past 2 weeks in Lublin, Poland

Now
61 °F

Passing clouds.


Feels Like: 61 °F
Forecast: 58 / 73 °F
Wind: 1 mph from South

Location: Lublin Radawiec

Current Time: Jul 29, 2015 at 12:53:49 AM

Latest Report: Jul 28, 2015 at 10:00 PM


Visibility: 25 mi

Pressure: 29.76 "Hg

Humidity: 83%

Dew point: 56 °F

Location of LublinLocation

Historic Weather in Lublin — Graph

°F

Lublin temperature yesterday

Maximum temperature yesterday: 75 °F (at 3:00 PM)
Minimum temperature yesterday: 57 °F (at 4:00 AM)
Average temperature yesterday: 65 °F

Past Weeks' High & Low Weather Summary

 TemperatureHumidityPressure
High91 °F (Jul 18, 3:00 PM)96% (Jul 13, 10:00 PM)30.11 "Hg (Jul 13, 10:00 PM)
Low47 °F (Jul 27, 4:00 AM)37% (Jul 17, 5:00 PM)29.66 "Hg (Jul 25, 6:00 PM)
Average69 °F69%29.91 "Hg
* Reported Jul 13 10:00 PM — Jul 28 10:00 PM, Lublin, Weather by CustomWeather, © 2015

Note: Actual official high and low records may vary slightly from our data, if they occured in-between our weather recording intervals... More about our weather records

Advertising

Lublin weather history for previous 24 hours

 ConditionsComfort  
Time TempWeatherWind HumidityBarometerVisibility
10:00 PM
Tue, Jul 28
61 °FPassing clouds.1 mph83%29.76 "Hg25 mi
9:00 PM61 °FPassing clouds.1 mph80%29.75 "Hg31 mi
8:00 PM64 °FPartly sunny.5 mph68%29.73 "Hg31 mi
7:00 PM66 °FPartly sunny.1 mph65%29.71 "Hg31 mi
6:00 PM68 °FPartly sunny.1 mph65%29.70 "Hg28 mi
5:00 PM67 °FSprinkles. Overcast.8 mph57%29.70 "Hg12 mi
4:00 PM72 °FPartly sunny.5 mph56%29.69 "Hg25 mi
3:00 PM75 °FPartly sunny.5 mph47%29.67 "Hg19 mi
2:00 PM75 °FPartly sunny.6 mph44%29.67 "Hg19 mi
1:00 PM69 °FPartly sunny.5 mph56%29.70 "Hg12 mi
12:00 PM72 °FPartly sunny.7 mph53%29.70 "Hg25 mi
11:00 AM70 °FScattered clouds.6 mph58%29.71 "Hg22 mi
10:00 AM68 °FPartly sunny.6 mph64%29.72 "Hg25 mi
9:00 AM66 °FPartly sunny.5 mph68%29.71 "Hg25 mi
8:00 AM64 °FPartly sunny.6 mph74%29.71 "Hg22 mi
7:00 AM61 °FPassing clouds.5 mph85%29.71 "Hg22 mi
6:00 AM58 °FPassing clouds.3 mph89%29.70 "Hg16 mi
5:00 AM58 °FPartly sunny.2 mph90%29.69 "Hg14 mi
4:00 AM57 °FPassing clouds.1 mph90%29.69 "Hg13 mi
3:00 AM59 °FPassing clouds.2 mph85%29.68 "Hg18 mi
2:00 AM61 °FOvercast.1 mph83%29.68 "Hg22 mi
1:00 AM62 °FOvercast.1 mph83%29.68 "Hg19 mi
12:00 AM63 °FOvercast.2 mph81%29.68 "Hg19 mi
Weather by CustomWeather, © 2015

See weather overviewHow to use our weather pages